When you browse on this site, cookies collect data to enhance your experience and personalize the content and advertising you see.
Visit our Privacy Policy to learn more. By continuing to use the site, you agree to this use of cookies and data.
  • In Latvia
  • List of Countries
  • For 7 days
  • Water Temperature
  • Weather Map
  • Weather Widgets
  • user-avatar
    Login

    Hourly Weather Graz

    Today, 1 June, Monday

    Time Temperature Precipitation Wind Pressure Humidity
    00:00 +10°C° 0.1 mm 2 mps 725 mmHg 86%
    01:00 +10°C° 0.1 mm 2 mps 725 mmHg 88%
    02:00 +10°C° 0 mm 2 mps 725 mmHg 88%
    03:00 +10°C° 0 mm 2 mps 725 mmHg 88%
    04:00 +10°C° 0 mm 2 mps 725 mmHg 88%
    05:00 +12°C° 0 mm 2 mps 725 mmHg 84%
    06:00 +13°C° 0 mm 2 mps 725 mmHg 81%
    07:00 +15°C° 0 mm 2 mps 725 mmHg 77%
    08:00 +17°C° 0.1 mm 2 mps 726 mmHg 67%
    09:00 +18°C° 0.1 mm 2 mps 726 mmHg 58%
    10:00 +20°C° 0.1 mm 2 mps 726 mmHg 48%
    11:00 +21°C° 0 mm 2 mps 726 mmHg 47%
    12:00 +21°C° 0 mm 2 mps 725 mmHg 46%
    13:00 +21°C° 0 mm 2 mps 725 mmHg 45%
    14:00 +21°C° 0 mm 2 mps 725 mmHg 46%
    15:00 +21°C° 0 mm 2 mps 725 mmHg 46%
    16:00 +23°C° 0 mm 1 mps 725 mmHg 47%
    17:00 +21°C° 0 mm 1 mps 725 mmHg 55%
    18:00 +20°C° 0 mm 1 mps 724 mmHg 63%
    19:00 +18°C° 0 mm 1 mps 724 mmHg 72%
    20:00 +16°C° 0 mm 1 mps 725 mmHg 77%
    21:00 +14°C° 0 mm 1 mps 725 mmHg 82%
    22:00 +13°C° 0 mm 1 mps 725 mmHg 87%
    23:00 +12°C° 0 mm 1 mps 725 mmHg 88%

    Tomorrow, 2 June, Tuesday

    Time Temperature Precipitation Wind Pressure Humidity
    00:00 +12°C° 0 mm 1 mps 725 mmHg 89%
    01:00 +11°C° 0 mm 1 mps 725 mmHg 91%
    02:00 +11°C° 0 mm 1 mps 725 mmHg 91%
    03:00 +11°C° 0 mm 1 mps 725 mmHg 92%
    04:00 +10°C° 0 mm 1 mps 724 mmHg 92%
    05:00 +12°C° 0 mm 1 mps 725 mmHg 86%
    06:00 +13°C° 0 mm 1 mps 725 mmHg 80%
    07:00 +14°C° 0 mm 0 mps 725 mmHg 74%
    08:00 +18°C° 0 mm 1 mps 725 mmHg 66%
    09:00 +19°C° 0 mm 1 mps 725 mmHg 58%
    10:00 +20°C° 0 mm 2 mps 725 mmHg 50%
    11:00 +20°C° 0.1 mm 2 mps 724 mmHg 48%
    12:00 +21°C° 0.1 mm 2 mps 724 mmHg 46%
    13:00 +21°C° 0.1 mm 3 mps 723 mmHg 45%
    14:00 +21°C° 0.1 mm 2 mps 723 mmHg 46%
    15:00 +21°C° 0.1 mm 2 mps 723 mmHg 47%
    16:00 +21°C° 0.1 mm 2 mps 722 mmHg 48%
    17:00 +19°C° 0.2 mm 2 mps 722 mmHg 58%
    18:00 +18°C° 0.2 mm 1 mps 722 mmHg 68%
    19:00 +16°C° 0.2 mm 1 mps 721 mmHg 77%
    20:00 +14°C° 0.1 mm 1 mps 722 mmHg 81%
    21:00 +13°C° 0.1 mm 1 mps 722 mmHg 85%
    22:00 +12°C° 0.1 mm 1 mps 722 mmHg 89%
    23:00 +12°C° 0 mm 1 mps 722 mmHg 89%

    Day after tomorrow, 3 June, Wednesday

    Time Temperature Precipitation Wind Pressure Humidity
    00:00 +12°C° 0 mm 1 mps 721 mmHg 90%
    01:00 +11°C° 0 mm 1 mps 721 mmHg 90%
    02:00 +11°C° 0 mm 1 mps 721 mmHg 91%
    03:00 +11°C° 0 mm 1 mps 721 mmHg 91%
    04:00 +10°C° 0 mm 1 mps 721 mmHg 91%
    05:00 +12°C° 0 mm 1 mps 720 mmHg 86%
    06:00 +14°C° 0 mm 1 mps 720 mmHg 81%
    07:00 +15°C° 0 mm 1 mps 720 mmHg 76%
    08:00 +19°C° 0 mm 1 mps 720 mmHg 65%
    09:00 +21°C° 0 mm 1 mps 720 mmHg 55%
    10:00 +23°C° 0 mm 1 mps 720 mmHg 44%
    11:00 +24°C° 0.1 mm 1 mps 720 mmHg 42%
    12:00 +25°C° 0.1 mm 1 mps 719 mmHg 41%
    13:00 +26°C° 0.1 mm 1 mps 719 mmHg 39%
    14:00 +25°C° 0.2 mm 1 mps 719 mmHg 43%
    15:00 +24°C° 0.2 mm 1 mps 718 mmHg 47%
    16:00 +23°C° 0.2 mm 2 mps 718 mmHg 51%
    17:00 +22°C° 0.2 mm 1 mps 717 mmHg 60%
    18:00 +20°C° 0.2 mm 1 mps 717 mmHg 69%
    19:00 +18°C° 0.2 mm 1 mps 717 mmHg 77%
    20:00 +16°C° 0.1 mm 1 mps 717 mmHg 81%
    21:00 +15°C° 0.1 mm 1 mps 717 mmHg 84%
    22:00 +14°C° 0.1 mm 1 mps 717 mmHg 87%
    23:00 +13°C° 0 mm 1 mps 717 mmHg 88%

    4 June, Thursday

    Time Temperature Precipitation Wind Pressure Humidity
    00:00 +13°C° 0 mm 1 mps 716 mmHg 89%
    01:00 +13°C° 0 mm 1 mps 716 mmHg 90%
    02:00 +13°C° 0 mm 1 mps 716 mmHg 91%
    03:00 +12°C° 0 mm 1 mps 715 mmHg 92%
    04:00 +12°C° 0 mm 1 mps 715 mmHg 92%
    05:00 +14°C° 0 mm 1 mps 715 mmHg 88%
    06:00 +15°C° 0 mm 1 mps 715 mmHg 84%
    07:00 +18°C° 0 mm 1 mps 715 mmHg 80%
    08:00 +20°C° 0 mm 1 mps 715 mmHg 71%
    09:00 +22°C° 0 mm 1 mps 715 mmHg 61%
    10:00 +24°C° 0 mm 2 mps 716 mmHg 51%
    11:00 +25°C° 0 mm 2 mps 715 mmHg 49%
    12:00 +26°C° 0 mm 3 mps 715 mmHg 47%
    13:00 +26°C° 0 mm 4 mps 715 mmHg 45%
    14:00 +26°C° 0 mm 4 mps 714 mmHg 47%
    15:00 +25°C° 0 mm 4 mps 714 mmHg 49%
    16:00 +25°C° 0 mm 5 mps 713 mmHg 51%
    17:00 +22°C° 0 mm 4 mps 713 mmHg 58%
    18:00 +21°C° 0 mm 4 mps 712 mmHg 65%
    19:00 +19°C° 0 mm 3 mps 712 mmHg 72%
    20:00 +18°C° 0 mm 3 mps 712 mmHg 76%
    21:00 +17°C° 0 mm 2 mps 713 mmHg 81%
    22:00 +16°C° 0 mm 2 mps 713 mmHg 86%
    23:00 +16°C° 0 mm 2 mps 713 mmHg 87%

    5 June, Friday

    Time Temperature Precipitation Wind Pressure Humidity
    00:00 +16°C° 0 mm 1 mps 713 mmHg 88%
    01:00 +15°C° 0 mm 1 mps 713 mmHg 90%
    02:00 +15°C° 0 mm 1 mps 713 mmHg 90%
    03:00 +15°C° 0 mm 1 mps 713 mmHg 91%
    04:00 +15°C° 0 mm 1 mps 713 mmHg 92%
    05:00 +16°C° 0 mm 1 mps 713 mmHg 87%
    06:00 +18°C° 0 mm 1 mps 713 mmHg 83%
    07:00 +20°C° 0 mm 1 mps 713 mmHg 79%
    08:00 +19°C° 2 mm 1 mps 713 mmHg 83%
    09:00 +18°C° 2 mm 1 mps 713 mmHg 87%
    10:00 +18°C° 2 mm 1 mps 713 mmHg 92%
    11:00 +16°C° 5.8 mm 2 mps 713 mmHg 92%
    12:00 +15°C° 5.8 mm 2 mps 713 mmHg 93%
    13:00 +13°C° 5.8 mm 3 mps 714 mmHg 94%
    14:00 +14°C° 2.3 mm 2 mps 714 mmHg 94%
    15:00 +14°C° 2.3 mm 1 mps 714 mmHg 93%
    16:00 +14°C° 2.3 mm 1 mps 715 mmHg 93%
    17:00 +14°C° 4 mm 1 mps 715 mmHg 94%
    18:00 +13°C° 4 mm 1 mps 715 mmHg 96%
    19:00 +13°C° 4 mm 1 mps 716 mmHg 97%
    20:00 +13°C° 1.5 mm 1 mps 716 mmHg 97%
    21:00 +13°C° 1.5 mm 1 mps 716 mmHg 96%
    22:00 +12°C° 1.5 mm 1 mps 717 mmHg 96%
    23:00 +12°C° 0.1 mm 1 mps 717 mmHg 96%

    6 June, Saturday

    Time Temperature Precipitation Wind Pressure Humidity
    00:00 +12°C° 0.1 mm 1 mps 717 mmHg 96%
    01:00 +11°C° 0.1 mm 1 mps 717 mmHg 95%
    02:00 +11°C° 0 mm 1 mps 716 mmHg 95%
    03:00 +11°C° 0 mm 1 mps 716 mmHg 95%
    04:00 +11°C° 0 mm 1 mps 716 mmHg 95%
    05:00 +12°C° 0 mm 1 mps 716 mmHg 92%
    06:00 +13°C° 0 mm 0 mps 716 mmHg 89%
    07:00 +14°C° 0 mm 0 mps 716 mmHg 86%
    08:00 +18°C° 0 mm 1 mps 717 mmHg 79%
    09:00 +20°C° 0 mm 1 mps 717 mmHg 71%
    10:00 +22°C° 0 mm 1 mps 717 mmHg 63%
    11:00 +23°C° 0.2 mm 1 mps 717 mmHg 63%
    12:00 +23°C° 0.2 mm 1 mps 717 mmHg 63%
    13:00 +24°C° 0.2 mm 1 mps 716 mmHg 62%
    14:00 +24°C° 0.3 mm 1 mps 716 mmHg 63%
    15:00 +24°C° 0.3 mm 1 mps 716 mmHg 65%
    16:00 +24°C° 0.3 mm 1 mps 716 mmHg 66%
    17:00 +23°C° 0.9 mm 1 mps 716 mmHg 73%
    18:00 +21°C° 0.9 mm 1 mps 716 mmHg 81%
    19:00 +20°C° 0.9 mm 1 mps 716 mmHg 88%
    20:00 +19°C° 0.6 mm 1 mps 717 mmHg 89%
    21:00 +18°C° 0.6 mm 1 mps 717 mmHg 91%
    22:00 +16°C° 0.6 mm 1 mps 718 mmHg 92%
    23:00 +16°C° 0.3 mm 1 mps 718 mmHg 92%
    Show more